Location: Muenchen
(48.1800°N, 11.5800°E)
Time: 04:40:46
(UTC+01:00)

Cosmos 1455 - Visible Passes

Search period start: 12 February 2016 00:00
Search period end: 22 February 2016 00:00
Orbit: 506 x 531 km, 82.5° (Epoch: 11 February)

Date Brightness Start Highest point End Pass type
(mag) Time Alt. Az. Time Alt. Az. Time Alt. Az.
12 Feb 5.6 03:59:50 10° E 04:00:24 10° E 04:00:59 10° ENE visible
12 Feb 2.1 05:32:30 16° SSW 05:35:33 73° W 05:39:28 10° N visible
13 Feb 2.1 05:20:20 45° SSW 05:21:27 86° W 05:25:22 10° N visible
14 Feb 2.2 05:07:27 79° ENE 05:07:27 79° ENE 05:11:15 10° NNE visible
14 Feb 4.2 06:43:03 10° WNW 06:43:42 10° WNW 06:44:21 10° NW visible
15 Feb 3.1 04:54:15 45° NNE 04:54:15 45° NNE 04:57:07 10° NNE visible
15 Feb 4.1 06:29:22 12° WNW 06:29:29 12° WNW 06:31:01 10° NW visible
16 Feb 3.9 04:40:51 30° NNE 04:40:51 30° NNE 04:42:57 10° NNE visible
16 Feb 4.1 06:15:57 13° NW 06:15:57 13° NW 06:17:19 10° NW visible
17 Feb 4.4 04:27:19 21° NNE 04:27:19 21° NNE 04:28:47 10° NNE visible
17 Feb 4.2 06:02:25 14° NW 06:02:25 14° NW 06:03:30 10° NNW visible
18 Feb 4.9 04:13:41 16° NNE 04:13:41 16° NNE 04:14:35 10° NNE visible
18 Feb 4.3 05:48:46 13° NW 05:48:46 13° NW 05:49:36 10° NNW visible
19 Feb 5.2 03:59:58 12° NNE 03:59:58 12° NNE 04:00:21 10° NNE visible
19 Feb 4.4 05:35:04 13° NNW 05:35:04 13° NNW 05:35:38 10° NNW visible
20 Feb 4.6 05:21:17 12° NNW 05:21:17 12° NNW 05:21:39 10° NNW visible
21 Feb 4.7 05:07:28 11° NNW 05:07:28 11° NNW 05:07:37 10° NNW visible
